Regional Weather Roundup
Issued by NWS

Home | Current Version | Previous Version | Graphics & Text | Print | Product List | Glossary On
Versions: 1 2 3 4 5 6 7 8 9 10 11 12 13 14 15 16 17 18 19 20 21 22 23 24 25 26 27 28 29 30 31 32 33 34 35 36 37 38 39 40 41 42 43 44 45 46 47 48 49 50
000
ASUS43 KDTX 250110
RWRMI
MICHIGAN HOURLY REGIONAL WEATHER ROUNDUP
NATIONAL WEATHER SERVICE DETROIT/PONTIAC MI
900 PM EDT THU APR 24 2014

NOTE: "FAIR" INDICATES FEW OR NO CLOUDS BELOW 12,000 FEET WITH NO
SIGNIFICANT WEATHER AND/OR OBSTRUCTION TO VISIBILITY.

MIZ047>049-052>055-059>063-066>070-074>076-081>083-250200-
SOUTHEAST LOWER MICHIGAN

CITY           SKY/WX    TMP DP  RH WIND       PRES   REMARKS
ADRIAN         CLOUDY    45  27  49 E16       29.92F
ALMA           MOCLDY    51  19  28 E15       29.89F
ANN ARBOR      CLOUDY    48  20  32 E8        29.93F
BAD AXE        CLOUDY    43  17  35 E6G16     29.98F
CARO           CLOUDY    48  19  32 E8        29.96S
DETROIT CITY   CLOUDY    50  24  36 SE12      29.96F
DETROIT        CLOUDY    49  20  31 E8G16     29.96F
FLINT          CLOUDY    51  18  27 SE14      29.94S
GROSSE ILE     CLOUDY    46  21  36 E9        29.94R
HILLSDALE      CLOUDY    46  22  39 E17G28    29.87F
HOWELL         CLOUDY    48  15  27 E13       29.90F

CITY           SKY/WX    TMP DP  RH WIND       PRES   REMARKS
JACKSON        CLOUDY    47  20  34 SE13G24   29.87F
LAMBERTVILLE   CLOUDY    46  28  49 E10G18    29.92F
LANSING        MOCLDY    50  16  25 SE17G28   29.87F
LAPEER         DRIZZLE   47  20  34 SE7       29.95F
MASON          CLOUDY    48  17  28 E13G21    29.88F
MONROE         CLOUDY    46  28  49 E16G23    29.92F
MT. CLEMENS    CLOUDY    48  30  49 E14       29.95F
PONTIAC        CLOUDY    49  16  26 SE14      29.95F
PORT HOPE        N/A     41  28  60 E16       29.98F
PORT HURON     CLOUDY    43  25  49 NE3       29.99F
TRI CITIES     CLOUDY    51  26  37 E16       29.93F
TROY           CLOUDY    49  20  31 E8        29.97F
SAGINAW HB     CLOUDY    50  23  34 E14G20    29.94S
YPSILANTI      CLOUDY    51  20  29 E12       29.94S
$$
MIZ043>046-050>051-056>058-064>065-071>073-077>080-250200-
SOUTHWEST LOWER MICHIGAN

CITY           SKY/WX    TMP DP  RH WIND       PRES   REMARKS
BATTLE CREEK   CLOUDY    50  21  32 SE12G23   29.84F
BENTON HARBOR  CLOUDY    54  25  32 SE20G25   29.75F
BIG RAPIDS     CLOUDY    50  25  37 E13G20    29.85F
COLDWATER      CLOUDY    47  25  41 E16G22    29.84F
FREMONT        FAIR      52  19  27 SE12G18   29.83S
HOLLAND        CLOUDY    53  25  33 E9G23     29.82R
GRAND RAPIDS   CLOUDY    51  21  30 SE16      29.84F
IONIA          FAIR      49  19  29 SE13G23   29.86R
KALAMAZOO      CLOUDY    51  25  36 SE10      29.83F
LUDINGTON      MOCLDY    55  21  27 SE17G25   29.81R
MARSHALL       CLOUDY    47  22  36 E17       29.85F
MOUNT PLEASANT CLOUDY    51  21  31 E14G20    29.89F
MUSKEGON       CLOUDY    54  23  30 E13       29.82S
SOUTH HAVEN    CLOUDY    55  21  26 SE12G22   29.78S
$$
MIZ016>042-250200-
NORTHERN LOWER MICHIGAN

CITY           SKY/WX    TMP DP  RH WIND       PRES   REMARKS
ALPENA         CLOUDY    39  25  57 E5        30.02F
BEAVER ISLAND  CLOUDY    42  28  58 E16G22    29.94F
BELLAIRE       CLOUDY    49  16  26 E8G18     29.90F
CADILLAC       CLOUDY    46  24  41 E16G23    29.85F
CHARLEVOIX     CLOUDY    47  22  38 E12G18    29.93F
FRANKFORT      CLOUDY    50  27  40 E9G18     29.81F
GAYLORD        CLOUDY    44  13  28 E10G20    29.93F
GRAYLING       CLOUDY    45  13  27 E15G25    29.93F
HARBOR SPRINGS CLOUDY    47  21  36 E13       29.93F
HOUGHTON LAKE  CLOUDY    44  18  35 E10       29.93F
MANISTEE       CLOUDY    54  21  28 SE9G21    29.82S
OSCODA         MOCLDY    42  22  46 E9        29.99F
PELLSTON       CLOUDY    46  16  30 E15G24    29.96F
ROGERS CITY    CLOUDY    43  24  47 SE8       30.01F
TRAVERSE CITY  CLOUDY    51  22  31 E13G21    29.85F
$$
MIZ007>008-015-250200-
EASTERN UPPER MICHIGAN

CITY           SKY/WX    TMP DP  RH WIND       PRES   REMARKS
KINROSS        CLOUDY    43  21  42 SE10      29.98F
MACKINAC ISLAN DRIZZLE   41  28  60 E12G20    29.98F
NEWBERRY       LGT RAIN  35  33  92 E16       29.98F WCI  25
S. S. MARIE    CLOUDY    43  21  41 E6        29.99F
MUNISING         N/A     40  34  79 SE6       29.94S
$$
MIZ004>006-011>014-085-250200-
CENTRAL UPPER MICHIGAN

CITY           SKY/WX    TMP DP  RH WIND       PRES   REMARKS
MANISTIQUE     LGT RAIN  39  34  84 SE9       29.94S WCI  32
ESCANABA       CLOUDY    37  36  93 E9        29.88F WCI  31
MENOMINEE      CLOUDY    37  34  87 E15G21    29.83F WCI  28
SAWYER-GWINN   LGT SNOW  32  32 100 E6        29.89F WCI  26
$$
MIZ001>003-009>011-084-250200-
WESTERN UPPER MICHIGAN

CITY           SKY/WX    TMP DP  RH WIND       PRES   REMARKS
IRON MOUNTAIN  LGT SNOW  34  32  92 E8G22     29.83F FOG     WCI  27
HOUGHTON       SNOW      32  30  93 E20       29.86F VSB 1/4 WCI  20
COPPER HARBOR    N/A     35  32  88 S8G21     29.93S WCI  29
$$

ABBREVIATIONS USED IN REMARKS
   TC - TEMPERATURE IN CELSIUS
  WCI - WIND CHILL INDEX
   HX - HEAT INDEX
  VSB - VISIBILITY




USA.gov is the U.S. government's official web portal to all federal, state and local government web resources and services.